Volver al catálogo

FENGYUN 1C DEB

ActivoSSO
NORAD 31686·DEBRIS·🇨🇳 China

Lanzado May 10, 1999 desde Taiyuan Satellite Launch Center

Loading…

Próximos Pases (próximas 24 horas)

TLE

ActualizadoSource: Space-Track

Época: Sep 11, 2026, 11:38 UTC

1 31686U 99025CCU 26254.48487984  .00003168  00000-0  25938-3 0  9998
2 31686  98.1251 332.6349 0266007 296.3333  73.4244 14.76444532 18308

Sigue FENGYUN 1C DEB en tiempo real con AllMySat

Download on the App Store